TimeCST,TemperatureF,Dew PointF,Humidity,Sea Level PressureIn,VisibilityMPH,Wind Direction,Wind SpeedMPH,Gust SpeedMPH,PrecipitationIn,Events,Conditions,WindDirDegrees,DateUTC
12:53 AM,46.9,44.1,90,29.83,6.0,NNW,15.0,18.4,N/A,,Overcast,340,2012-12-10 06:53:00
1:53 AM,46.0,42.1,86,29.82,9.0,North,13.8,-,N/A,,Overcast,350,2012-12-10 07:53:00
2:46 AM,44.6,39.2,81,29.82,10.0,NNW,12.7,-,N/A,,Overcast,340,2012-12-10 08:46:00
2:53 AM,45.0,39.9,82,29.82,10.0,NNW,12.7,-,N/A,,Overcast,330,2012-12-10 08:53:00
3:46 AM,44.6,37.4,76,29.81,10.0,NNW,12.7,18.4,N/A,,Overcast,340,2012-12-10 09:46:00
3:53 AM,44.1,37.9,79,29.81,10.0,North,12.7,-,N/A,,Overcast,350,2012-12-10 09:53:00
4:53 AM,43.0,35.1,74,29.81,10.0,North,11.5,-,N/A,,Mostly Cloudy,350,2012-12-10 10:53:00
5:26 AM,42.8,35.6,76,29.83,10.0,NNW,9.2,-,N/A,,Mostly Cloudy,330,2012-12-10 11:26:00
5:53 AM,41.0,35.1,79,29.83,10.0,NNW,8.1,-,N/A,,Overcast,330,2012-12-10 11:53:00
6:53 AM,39.0,33.1,79,29.84,10.0,NNW,11.5,-,N/A,,Scattered Clouds,340,2012-12-10 12:53:00
7:09 AM,39.2,33.8,81,29.85,10.0,NNW,9.2,-,N/A,,Mostly Cloudy,330,2012-12-10 13:09:00
7:36 AM,37.4,30.2,75,29.87,10.0,NNW,10.4,-,N/A,,Overcast,330,2012-12-10 13:36:00
7:53 AM,36.0,30.0,79,29.88,10.0,NNW,13.8,-,N/A,,Overcast,330,2012-12-10 13:53:00
8:03 AM,33.8,28.4,81,29.88,10.0,NNW,13.8,23.0,N/A,,Overcast,330,2012-12-10 14:03:00
8:46 AM,33.8,26.6,75,29.89,9.0,NNW,16.1,21.9,N/A,,Overcast,340,2012-12-10 14:46:00
8:53 AM,33.1,27.0,78,29.91,9.0,NNW,12.7,23.0,N/A,,Overcast,330,2012-12-10 14:53:00
9:53 AM,33.8,26.6,75,29.91,9.0,NNW,11.5,-,N/A,,Overcast,330,2012-12-10 15:53:00
10:53 AM,34.0,27.0,75,29.91,9.0,NNW,9.2,-,N/A,,Overcast,330,2012-12-10 16:53:00
11:53 AM,33.1,26.1,75,29.91,10.0,NW,10.4,-,N/A,,Overcast,310,2012-12-10 17:53:00
12:53 PM,33.1,25.0,72,29.91,10.0,NW,13.8,-,N/A,,Overcast,310,2012-12-10 18:53:00
1:53 PM,33.1,25.0,72,29.89,10.0,North,6.9,-,N/A,,Overcast,350,2012-12-10 19:53:00
2:53 PM,33.1,25.0,72,29.92,10.0,NNW,11.5,-,N/A,,Overcast,330,2012-12-10 20:53:00
3:53 PM,32.0,24.1,73,29.94,10.0,NW,8.1,-,N/A,,Overcast,310,2012-12-10 21:53:00
4:53 PM,32.0,24.1,73,29.97,10.0,NW,6.9,-,N/A,,Overcast,310,2012-12-10 22:53:00
5:53 PM,32.0,24.1,73,30.00,10.0,NNW,10.4,-,N/A,,Overcast,340,2012-12-10 23:53:00
6:41 PM,32.0,24.8,75,30.01,10.0,NW,8.1,-,N/A,,Overcast,320,2012-12-11 00:41:00
6:53 PM,32.0,24.1,73,30.01,10.0,NW,6.9,-,N/A,,Overcast,320,2012-12-11 00:53:00
7:37 PM,32.0,24.8,75,30.02,10.0,Variable,6.9,-,N/A,,Overcast,0,2012-12-11 01:37:00
7:53 PM,32.0,24.1,73,30.04,10.0,NW,9.2,-,N/A,,Overcast,320,2012-12-11 01:53:00
8:53 PM,30.9,21.9,69,30.05,10.0,North,12.7,-,N/A,,Overcast,360,2012-12-11 02:53:00
9:53 PM,30.9,21.9,69,30.06,10.0,NNW,5.8,-,N/A,,Overcast,340,2012-12-11 03:53:00
10:53 PM,30.9,21.0,67,30.09,10.0,North,10.4,-,N/A,,Overcast,360,2012-12-11 04:53:00
11:53 PM,30.9,19.9,64,30.09,10.0,North,10.4,-,N/A,,Overcast,10,2012-12-11 05:53:00